Location: Sternwarte ZA, Rosenfeld-Brittheim
(48.2889°N, 8.6789°E)
Time: 17:50:59
(UTC+02:00)

ISS - Pass Details

Date: 26 May 2020
Orbit: 417 x 420 km, 51.6° (Epoch: 26 May)

Event Time Altitude Azimuth Distance (km) Brightness Sun altitude
Rises 23:55:41 0° 292° (WNW) 2,369 0.7 -17.9°
Reaches altitude 10° 23:57:48 10° 289° (WNW) 1,503 -0.4 -18.0°
Maximum altitude 00:01:08 65° 208° (SSW) 466 -3.8 -18.2°
Enters shadow 00:01:21 63° 183° (S) 474 -3.8 -18.2°
